Alva, OK

7:54 AM CDT on September 24, 2017 (GMT -0500)
Alva Regional

Weather History for KAVK - December, 2012

Change the Weather History Date:

Saturday, December 29, 2012

  Actual Average Record
Temperature  
Mean Temperature 27 °F -  
Max Temperature 46 °F 47 °F 69 °F (1956)
Min Temperature 8 °F 26 °F 5 °F (1990)
Degree Days  
Heating Degree Days 38    
Moisture  
Dew Point 13 °F    
Average Humidity 60    
Maximum Humidity 86    
Minimum Humidity 29    
Precipitation  
Precipitation 0.00 in - - ()
Sea Level Pressure  
Sea Level Pressure 30.29 in    
Wind  
Wind Speed 7 mph (West)    
Max Wind Speed 14 mph    
Max Gust Speed 17 mph    
Visibility 10 miles    
Events      
Averages and records for this station are not official NWS values.
T = Trace of Precipitation, MM = Missing Value Source: NWS Daily Summary

Daily Weather History Graph

Daily Weather History Graph

Search for Another Location

Airport or City:

Trip Planner

Search our weather history database for the weather conditions in past years. The results will help you decide how hot, cold, wet, or windy it might be!

Date:

Astronomy

Dec. 29, 2012 Rise Set
Actual Time 7:46 AM CST 5:27 PM CST
Civil Twilight 7:17 AM CST 5:56 PM CST
Nautical Twilight 6:45 AM CST 6:28 PM CST
Astronomical Twilight 6:14 AM CST 7:00 PM CST
Moon 6:59 PM CST (12/29) 8:23 AM CST (12/29)
Length of Visible Light 10h 38m
Length of Day
9h 40m
Full, 98% of the Moon is Illuminated
Dec 29
Full
Jan 4
Last Quarter
Jan 11
New
Jan 18
First Quarter
Jan 26
Full

Hourly Weather History & Observations

Time (CST) Temp. Windchill Dew Point Humidity Pressure Visibility Wind Dir Wind Speed Gust Speed Precip Events Conditions
12:15 AM 12.2 °F 1.7 °F 6.8 °F 79% 30.21 in 10.0 mi WNW 6.9 mph - N/A   Clear
12:35 AM 12.2 °F 0.7 °F 6.8 °F 79% 30.21 in 10.0 mi WNW 8.1 mph - N/A   Clear
12:55 AM 14.0 °F 5.1 °F 6.8 °F 73% 30.21 in 9.0 mi WNW 5.8 mph - N/A   Clear
1:15 AM 12.2 °F 1.7 °F 6.8 °F 79% 30.21 in 10.0 mi NW 6.9 mph - N/A   Clear
1:35 AM 14.0 °F 3.9 °F 6.8 °F 73% 30.22 in 10.0 mi NW 6.9 mph - N/A   Clear
1:55 AM 12.2 °F 2.9 °F 6.8 °F 79% 30.23 in 10.0 mi WNW 5.8 mph - N/A   Clear
2:15 AM 14.0 °F 5.1 °F 8.6 °F 79% 30.23 in 10.0 mi NW 5.8 mph - N/A   Clear
2:35 AM 14.0 °F - 8.6 °F 79% 30.23 in 10.0 mi Calm Calm - N/A   Clear
2:55 AM 15.8 °F 10.2 °F 8.6 °F 73% 30.24 in 10.0 mi NW 3.5 mph - N/A   Clear
3:15 AM 14.0 °F 8.2 °F 8.6 °F 79% 30.24 in 10.0 mi NNW 3.5 mph - N/A   Clear
3:35 AM 14.0 °F - 8.6 °F 79% 30.24 in 10.0 mi Calm Calm - N/A   Clear
3:55 AM 14.0 °F 6.5 °F 6.8 °F 73% 30.24 in 10.0 mi West 4.6 mph - N/A   Clear
4:15 AM 8.6 °F -3.7 °F 5.0 °F 85% 30.25 in 10.0 mi WSW 8.1 mph - N/A   Clear
4:35 AM 8.6 °F -2.6 °F 5.0 °F 85% 30.25 in 10.0 mi SW 6.9 mph - N/A   Clear
4:55 AM 10.4 °F -1.5 °F 6.8 °F 85% 30.25 in 10.0 mi WSW 8.1 mph - N/A   Clear
5:15 AM 10.4 °F -4.1 °F 6.8 °F 85% 30.25 in 10.0 mi WSW 11.5 mph - N/A   Clear
5:35 AM 14.0 °F -0.2 °F 8.6 °F 79% 30.26 in 10.0 mi WSW 12.7 mph - N/A   Clear
5:55 AM 14.0 °F 1.2 °F 8.6 °F 79% 30.27 in 10.0 mi WSW 10.4 mph - N/A   Clear
6:15 AM 14.0 °F 2.9 °F 8.6 °F 79% 30.27 in 10.0 mi West 8.1 mph - N/A   Clear
6:35 AM 14.0 °F 1.2 °F 8.6 °F 79% 30.28 in 10.0 mi WSW 10.4 mph - N/A   Clear
7:15 AM 14.0 °F 2.0 °F 10.4 °F 86% 30.29 in 10.0 mi West 9.2 mph - N/A   Clear
7:35 AM 14.0 °F 3.9 °F 8.6 °F 79% 30.31 in 10.0 mi West 6.9 mph - N/A   Clear
7:55 AM 14.0 °F -0.8 °F 8.6 °F 79% 30.33 in 9.0 mi WSW 13.8 mph - N/A   Clear
8:15 AM 15.8 °F 4.2 °F 10.4 °F 79% 30.33 in 9.0 mi West 9.2 mph - N/A   Clear
8:35 AM 17.6 °F 6.4 °F 14.0 °F 86% 30.34 in 10.0 mi West 9.2 mph - N/A   Clear
8:55 AM 19.4 °F 7.9 °F 15.8 °F 86% 30.33 in 9.0 mi WNW 10.4 mph - N/A   Clear
9:15 AM 23.0 °F 14.7 °F 15.8 °F 74% 30.34 in 9.0 mi WNW 6.9 mph - N/A   Clear
9:35 AM 24.8 °F 16.9 °F 17.6 °F 74% 30.33 in 10.0 mi NW 6.9 mph - N/A   Clear
9:55 AM 28.4 °F 20.4 °F 17.6 °F 64% 30.34 in 10.0 mi NW 8.1 mph - N/A   Clear
10:15 AM 32.0 °F 24.8 °F 17.6 °F 55% 30.35 in 10.0 mi NW 8.1 mph - N/A   Clear
10:35 AM 32.0 °F 24.2 °F 17.6 °F 55% 30.36 in 10.0 mi NW 9.2 mph - N/A   Clear
10:55 AM 33.8 °F 27.7 °F 17.6 °F 52% 30.36 in 10.0 mi NW 6.9 mph - N/A   Clear
11:15 AM 35.6 °F 29.2 °F 17.6 °F 48% 30.37 in 10.0 mi NW 8.1 mph - N/A   Clear
11:35 AM 37.4 °F 33.8 °F 17.6 °F 45% 30.36 in 10.0 mi WNW 4.6 mph - N/A   Clear
11:55 AM 39.2 °F 35.0 °F 17.6 °F 42% 30.35 in 10.0 mi WSW 5.8 mph - N/A   Clear
12:15 PM 39.2 °F 33.6 °F 19.4 °F 45% 30.35 in 10.0 mi WSW 8.1 mph - N/A   Clear
12:35 PM 41.0 °F 35.8 °F 19.4 °F 42% 30.34 in 10.0 mi WSW 8.1 mph - N/A   Clear
12:55 PM 41.0 °F 35.8 °F 19.4 °F 42% 30.33 in 10.0 mi WSW 8.1 mph - N/A   Clear
1:15 PM 42.8 °F 37.0 °F 19.4 °F 39% 30.31 in 10.0 mi West 10.4 mph - N/A   Clear
1:35 PM 44.6 °F 40.2 °F 19.4 °F 37% 30.31 in 10.0 mi West 8.1 mph - N/A   Clear
1:55 PM 46.4 °F 42.9 °F 19.4 °F 34% 30.30 in 10.0 mi WNW 6.9 mph - N/A   Clear
2:15 PM 46.4 °F 41.5 °F 19.4 °F 34% 30.30 in 10.0 mi WNW 10.4 mph - N/A   Clear
2:35 PM 46.4 °F 41.1 °F 17.6 °F 32% 30.30 in 10.0 mi WNW 11.5 mph 17.3 mph N/A   Clear
2:55 PM 46.4 °F 41.1 °F 17.6 °F 32% 30.30 in 10.0 mi West 11.5 mph - N/A   Clear
3:15 PM 46.4 °F 41.5 °F 15.8 °F 29% 30.30 in 10.0 mi WNW 10.4 mph - N/A   Clear
3:35 PM 46.4 °F 41.1 °F 15.8 °F 29% 30.30 in 10.0 mi NW 11.5 mph - N/A   Clear
3:55 PM 46.4 °F 42.4 °F 15.8 °F 29% 30.30 in 10.0 mi WNW 8.1 mph - N/A   Clear
4:15 PM 46.4 °F 43.5 °F 15.8 °F 29% 30.30 in 10.0 mi NW 5.8 mph - N/A   Clear
4:35 PM 46.4 °F 44.3 °F 15.8 °F 29% 30.29 in 10.0 mi NW 4.6 mph - N/A   Clear
4:55 PM 42.8 °F - 15.8 °F 34% 30.29 in 10.0 mi Calm Calm - N/A   Clear
5:15 PM 44.6 °F - 15.8 °F 31% 30.29 in 10.0 mi Calm Calm - N/A   Clear
5:35 PM 41.0 °F 39.0 °F 15.8 °F 36% 30.29 in 10.0 mi South 3.5 mph - N/A   Clear
5:55 PM 39.2 °F - 15.8 °F 39% 30.29 in 10.0 mi Calm Calm - N/A   Clear
6:15 PM 37.4 °F 32.1 °F 15.8 °F 41% 30.30 in 10.0 mi South 6.9 mph - N/A   Clear
6:35 PM 33.8 °F 28.6 °F 15.8 °F 48% 30.30 in 10.0 mi SSW 5.8 mph - N/A   Clear
6:55 PM 32.0 °F 25.6 °F 15.8 °F 51% 30.31 in 10.0 mi South 6.9 mph - N/A   Clear
7:35 PM 32.0 °F 27.5 °F 14.0 °F 48% 30.30 in 10.0 mi SSW 4.6 mph - N/A   Clear
7:55 PM 28.4 °F 23.3 °F 14.0 °F 55% 30.31 in 9.0 mi SW 4.6 mph - N/A   Clear
8:15 PM 24.8 °F 16.9 °F 14.0 °F 64% 30.30 in 10.0 mi South 6.9 mph - N/A   Clear
8:35 PM 26.6 °F 16.8 °F 14.0 °F 59% 30.29 in 10.0 mi South 10.4 mph - N/A   Partly Cloudy
8:55 PM 26.6 °F 17.5 °F 14.0 °F 59% 30.29 in 10.0 mi South 9.2 mph - N/A   Clear
9:15 PM 24.8 °F 15.3 °F 14.0 °F 64% 30.30 in 9.0 mi South 9.2 mph - N/A   Partly Cloudy
9:35 PM 24.8 °F 14.6 °F 14.0 °F 64% 30.30 in 10.0 mi South 10.4 mph - N/A   Partly Cloudy
9:55 PM 24.8 °F 15.3 °F 14.0 °F 64% 30.31 in 10.0 mi South 9.2 mph - N/A   Clear
10:15 PM 23.0 °F 13.1 °F 14.0 °F 68% 30.31 in 10.0 mi SSW 9.2 mph - N/A   Partly Cloudy
10:35 PM 24.8 °F 15.3 °F 14.0 °F 64% 30.32 in 10.0 mi SSW 9.2 mph - N/A   Clear
10:55 PM 23.0 °F 13.1 °F 14.0 °F 68% 30.33 in 10.0 mi SW 9.2 mph - N/A   Clear
11:15 PM 24.8 °F 15.3 °F 14.0 °F 64% 30.32 in 10.0 mi SSW 9.2 mph - N/A   Clear
11:35 PM 23.0 °F 13.9 °F 14.0 °F 68% 30.31 in 10.0 mi SW 8.1 mph - N/A   Clear
11:55 PM 24.8 °F 15.3 °F 14.0 °F 64% 30.29 in 10.0 mi SSW 9.2 mph - N/A   Clear